Location: Holyhead Bay
(53.3667°N, 4.6667°W)
Time: 18:11:43
(UTC+00:00)

CZ-4B R/B - Pass Details

Date: 24 November 2020
Orbit: 809 x 881 km, 99.1° (Epoch: 16 January)

Event Time Altitude Azimuth Distance (km) Brightness Sun altitude
Rises 17:38:03 0° 168° (SSE) 3,354 6.4 -12.6°
Reaches altitude 10° 17:40:25 10° 170° (S) 2,417 5.7 -12.9°
Maximum altitude 17:45:45 72° 255° (WSW) 859 3.4 -13.7°
Drops below altitude 10° 17:51:04 10° 340° (NNW) 2,410 5.6 -14.4°
Sets 17:53:25 0° 343° (NNW) 3,344 6.3 -14.8°
